timestamp,surface_pressure_avg,surface_temp_avg,battery_voltage,lat,long
2020-04-21 00:09:01+00:00,346.0946,2.0,13.05,47.84626,-54.09684
2020-04-21 00:19:01+00:00,346.1312,1.98,12.81,47.84626,-54.09684
2020-04-21 00:29:01+00:00,348.8179,1.99,12.81,47.84626,-54.09684
2020-04-21 00:39:01+00:00,334.8262,2.0,12.81,47.84626,-54.09684
2020-04-21 00:49:01+00:00,323.778,2.0,12.81,47.84626,-54.09684
2020-04-21 00:59:01+00:00,327.3431,1.9,12.81,47.84626,-54.09684
2020-04-21 01:09:01+00:00,324.553,1.9,12.81,47.84626,-54.09684
2020-04-21 01:19:01+00:00,304.2997,1.9,12.73,47.84626,-54.09684
2020-04-21 01:29:01+00:00,291.473,1.9,12.73,47.84626,-54.09684
2020-04-21 01:39:01+00:00,292.6914,1.89,12.73,47.84626,-54.09684
2020-04-21 01:49:01+00:00,288.0564,1.8,12.73,47.84626,-54.09684
2020-04-21 01:59:01+00:00,272.6531,1.8,12.73,47.84626,-54.09684
2020-04-21 02:09:01+00:00,264.3181,1.8,12.73,47.84626,-54.09684
2020-04-21 02:19:01+00:00,260.2215,1.8,12.65,47.84626,-54.09684
2020-04-21 02:29:01+00:00,257.0448,1.82,12.65,47.84626,-54.09684
2020-04-21 02:39:01+00:00,246.3914,1.85,12.65,47.84626,-54.09684
2020-04-21 02:49:01+00:00,240.0164,1.81,12.65,47.84626,-54.09684
2020-04-21 02:59:01+00:00,237.8081,1.84,12.65,47.84626,-54.09684
2020-04-21 03:09:01+00:00,234.6198,1.86,12.65,47.84626,-54.09684
2020-04-21 03:19:01+00:00,230.0914,1.84,12.65,47.84626,-54.09684
2020-04-21 03:29:01+00:00,225.1881,1.97,12.65,47.84626,-54.09684
2020-04-21 03:39:01+00:00,224.5382,2.1,12.65,47.84626,-54.09684
2020-04-21 03:49:01+00:00,222.6815,2.0,12.65,47.84626,-54.09684
2020-04-21 03:59:01+00:00,221.7515,2.0,12.65,47.84626,-54.09684
2020-04-21 04:09:01+00:00,220.0131,2.0,12.65,47.84626,-54.09684
2020-04-21 04:19:01+00:00,218.6331,2.0,12.65,47.84626,-54.09684
2020-04-21 04:29:01+00:00,218.8765,2.01,12.65,47.84626,-54.09684
2020-04-21 04:39:01+00:00,221.3031,2.0,12.65,47.84626,-54.09684
2020-04-21 04:49:01+00:00,220.9215,2.0,12.65,47.84626,-54.09684
2020-04-21 04:59:01+00:00,219.7664,2.0,12.65,47.84626,-54.09684
2020-04-21 05:09:01+00:00,216.8381,2.0,12.65,47.84626,-54.09684
2020-04-21 05:19:01+00:00,216.3265,2.0,12.65,47.84626,-54.09684
2020-04-21 05:29:01+00:00,215.1814,2.0,12.65,47.84626,-54.09684
2020-04-21 05:39:01+00:00,214.9164,2.05,12.65,47.84626,-54.09684
2020-04-21 05:49:01+00:00,212.1581,2.08,12.65,47.84626,-54.09684
2020-04-21 05:59:01+00:00,214.0847,2.09,12.65,47.84626,-54.09684
2020-04-21 06:09:01+00:00,216.9148,2.1,12.65,47.84626,-54.09684
2020-04-21 06:19:01+00:00,218.4264,2.1,12.65,47.84626,-54.09684
2020-04-21 06:29:01+00:00,222.5247,2.1,12.65,47.84626,-54.09684
2020-04-21 06:39:01+00:00,228.0498,2.1,12.65,47.84626,-54.09684
2020-04-21 06:49:01+00:00,230.9664,2.1,12.65,47.84626,-54.09684
2020-04-21 06:59:01+00:00,236.3347,2.1,12.65,47.84626,-54.09684
2020-04-21 07:09:01+00:00,243.4481,2.1,12.65,47.84626,-54.09684
2020-04-21 07:19:01+00:00,249.6181,2.1,12.65,47.84626,-54.09684
2020-04-21 07:29:01+00:00,259.2864,2.1,12.65,47.84626,-54.09684
2020-04-21 07:39:01+00:00,269.5714,2.1,12.65,47.84626,-54.09684
2020-04-21 07:49:01+00:00,274.4614,2.12,12.65,47.84626,-54.09684
2020-04-21 07:59:01+00:00,274.1198,2.13,12.65,47.84626,-54.09684
2020-04-21 08:09:01+00:00,282.568,2.15,12.65,47.84626,-54.09684
2020-04-21 08:19:01+00:00,289.9698,2.18,12.65,47.84626,-54.09684
2020-04-21 08:29:01+00:00,289.9764,2.2,12.65,47.84626,-54.09684
2020-04-21 08:39:01+00:00,292.5247,2.2,12.65,47.84626,-54.09684
2020-04-21 08:49:01+00:00,303.2646,2.18,12.65,47.84626,-54.09684
2020-04-21 08:59:01+00:00,308.5214,2.15,12.65,47.84626,-54.09684
2020-04-21 09:09:01+00:00,310.7813,2.18,12.65,47.84626,-54.09684
2020-04-21 09:19:01+00:00,319.2996,2.14,12.65,47.84626,-54.09684
2020-04-21 09:29:01+00:00,327.9146,2.15,12.65,47.84626,-54.09684
2020-04-21 09:39:01+00:00,329.0413,2.17,12.65,47.84626,-54.09684
2020-04-21 09:49:01+00:00,327.3947,2.19,12.65,47.84626,-54.09684
2020-04-21 09:59:01+00:00,336.8745,2.17,12.65,47.84626,-54.09684
2020-04-21 10:09:01+00:00,346.3179,2.16,12.65,47.84626,-54.09684
2020-04-21 10:19:01+00:00,339.6896,2.17,12.65,47.84626,-54.09684
2020-04-21 10:29:01+00:00,342.9797,2.17,12.65,47.84626,-54.09684
2020-04-21 10:39:01+00:00,355.0213,2.18,12.65,47.84626,-54.09684
2020-04-21 10:49:01+00:00,354.8396,2.19,12.65,47.84626,-54.09684
2020-04-21 10:59:01+00:00,345.1096,2.2,12.65,47.84626,-54.09684
2020-04-21 11:09:01+00:00,352.6846,2.2,12.65,47.84626,-54.09684
2020-04-21 11:19:01+00:00,360.3913,2.2,12.73,47.84626,-54.09684
2020-04-21 11:29:01+00:00,351.8146,2.2,12.73,47.84626,-54.09684
2020-04-21 11:39:01+00:00,345.8029,2.2,12.73,47.84626,-54.09684
2020-04-21 11:49:01+00:00,348.70300000000015,2.2,12.73,47.84626,-54.09684
2020-04-21 11:59:01+00:00,348.5913,2.2,12.73,47.84626,-54.09684
2020-04-21 12:09:01+00:00,342.3613,2.2,12.73,47.84626,-54.09684
2020-04-21 12:19:01+00:00,337.2379,2.2,12.81,47.84626,-54.09684
2020-04-21 12:29:01+00:00,337.4363,2.2,12.81,47.84626,-54.09684
2020-04-21 12:39:01+00:00,340.6247,2.2,12.81,47.84626,-54.09684
2020-04-21 12:49:01+00:00,333.2246,2.2,12.81,47.84626,-54.09684
2020-04-21 12:59:01+00:00,329.8229,2.2,12.81,47.84626,-54.09684
2020-04-21 13:09:01+00:00,325.5963,2.2,12.81,47.84626,-54.09684
2020-04-21 13:19:01+00:00,317.9946,2.2,12.89,47.84626,-54.09684
2020-04-21 13:29:01+00:00,304.8913,2.2,12.89,47.84626,-54.09684
2020-04-21 13:39:01+00:00,306.3064,2.2,12.89,47.84626,-54.09684
2020-04-21 13:49:01+00:00,308.323,2.2,12.89,47.84626,-54.09684
2020-04-21 13:59:01+00:00,297.7598,2.2,12.89,47.84626,-54.09684
2020-04-21 14:09:01+00:00,281.6264,2.2,12.89,47.84626,-54.09684
2020-04-21 14:19:01+00:00,288.4481,2.2,13.05,47.84626,-54.09684
2020-04-21 14:29:01+00:00,287.7281,2.2,13.05,47.84626,-54.09684
2020-04-21 14:39:01+00:00,272.0231,2.2,13.05,47.84626,-54.09684
2020-04-21 14:49:01+00:00,257.5448,2.2,13.05,47.84626,-54.09684
2020-04-21 14:59:01+00:00,260.8481,2.2,13.05,47.84626,-54.09684
2020-04-21 15:09:01+00:00,248.82299999999998,2.2,13.05,47.84626,-54.09684
2020-04-21 15:19:01+00:00,230.3347,2.2,13.05,47.84626,-54.09684
2020-04-21 15:29:01+00:00,228.0331,2.2,13.05,47.84626,-54.09684
2020-04-21 15:39:01+00:00,233.1631,2.2,13.05,47.84626,-54.09684
2020-04-21 15:49:01+00:00,227.8548,2.2,13.05,47.84626,-54.09684
2020-04-21 15:59:01+00:00,222.9115,2.2,13.05,47.84626,-54.09684
2020-04-21 16:09:01+00:00,223.5681,2.2,13.05,47.84626,-54.09684
2020-04-21 16:19:01+00:00,223.6664,2.2,13.05,47.84626,-54.09684
2020-04-21 16:29:01+00:00,219.1731,2.2,13.05,47.84626,-54.09684
2020-04-21 16:39:01+00:00,215.6165,2.2,13.05,47.84626,-54.09684
2020-04-21 16:49:01+00:00,213.5347,2.2,13.05,47.84626,-54.09684
2020-04-21 16:59:01+00:00,214.4515,2.2,13.05,47.84626,-54.09684
2020-04-21 17:09:01+00:00,216.2447,2.23,13.05,47.84626,-54.09684
2020-04-21 17:19:01+00:00,216.3981,2.2,13.21,47.84626,-54.09684
2020-04-21 17:29:01+00:00,215.7281,2.2,13.21,47.84626,-54.09684
2020-04-21 17:39:01+00:00,218.7764,2.2,13.21,47.84626,-54.09684
2020-04-21 17:49:01+00:00,225.0848,2.2,13.21,47.84626,-54.09684
2020-04-21 17:59:01+00:00,224.1681,2.2,13.21,47.84626,-54.09684
2020-04-21 18:09:01+00:00,222.8248,2.2,13.21,47.84626,-54.09684
2020-04-21 18:19:01+00:00,229.2381,2.2,13.76,47.84626,-54.09684
2020-04-21 18:29:01+00:00,239.1547,2.2,13.76,47.84626,-54.09684
2020-04-21 18:39:01+00:00,241.0831,2.2,13.76,47.84626,-54.09684
2020-04-21 18:49:01+00:00,242.0598,2.2,13.76,47.84626,-54.09684
2020-04-21 18:59:01+00:00,246.2047,2.2,13.76,47.84626,-54.09684
2020-04-21 19:09:01+00:00,254.688,2.2,13.76,47.84626,-54.09684
2020-04-21 19:19:01+00:00,260.7464,2.19,14.0,47.84626,-54.09684
2020-04-21 19:29:01+00:00,262.6664,2.19,14.0,47.84626,-54.09684
2020-04-21 19:39:01+00:00,266.3797,2.2,14.0,47.84626,-54.09684
2020-04-21 19:49:01+00:00,272.1297,2.2,14.0,47.84626,-54.09684
2020-04-21 19:59:01+00:00,276.0214,2.17,14.0,47.84626,-54.09684
2020-04-21 20:09:01+00:00,282.1214,2.1,14.0,47.84626,-54.09684
2020-04-21 20:19:01+00:00,292.2397,2.1,14.0,47.84626,-54.09684
2020-04-21 20:29:01+00:00,299.1948,2.1,14.0,47.84626,-54.09684
2020-04-21 20:39:01+00:00,303.3998,2.1,14.0,47.84626,-54.09684
2020-04-21 20:49:01+00:00,307.758,2.1,14.0,47.84626,-54.09684
2020-04-21 20:59:01+00:00,308.038,2.1,14.0,47.84626,-54.09684
2020-04-21 21:09:01+00:00,306.8063,2.15,14.0,47.84626,-54.09684
2020-04-21 21:19:01+00:00,311.3197,2.2,13.84,47.84626,-54.09684
2020-04-21 21:29:01+00:00,317.6479,2.2,13.84,47.84626,-54.09684
2020-04-21 21:39:01+00:00,321.5197,2.2,13.84,47.84626,-54.09684
2020-04-21 21:49:01+00:00,327.7147,2.2,13.84,47.84626,-54.09684
2020-04-21 21:59:01+00:00,335.7663,2.2,13.84,47.84626,-54.09684
2020-04-21 22:09:01+00:00,339.3281,2.2,13.84,47.84626,-54.09684
2020-04-21 22:19:01+00:00,341.4529,2.11,13.53,47.84626,-54.09684
2020-04-21 22:29:01+00:00,347.3696,2.1,13.53,47.84626,-54.09684
2020-04-21 22:39:01+00:00,353.2296,2.16,13.53,47.84626,-54.09684
2020-04-21 22:49:01+00:00,353.6812,2.17,13.53,47.84626,-54.09684
2020-04-21 22:59:01+00:00,352.4997,2.19,13.53,47.84626,-54.09684
2020-04-21 23:09:01+00:00,357.9012,2.2,13.53,47.84626,-54.09684
2020-04-21 23:19:01+00:00,358.1514,2.2,13.13,47.84626,-54.09684
2020-04-21 23:29:01+00:00,355.0945,2.2,13.13,47.84626,-54.09684
2020-04-21 23:39:01+00:00,355.2496,2.19,13.13,47.84626,-54.09684
2020-04-21 23:49:01+00:00,355.6096,2.16,13.13,47.84626,-54.09684
2020-04-21 23:59:01+00:00,354.4379,2.1,13.13,47.84626,-54.09684
